SCP
0 0 0 0 0 0 0 0 0 0 0 0 0 0 0 0 0 0 0 0 0 0 0 0 0 0 0 0 0 0 0 0 0 0 0 0 0 0 0 0 0 0 0
0 0 0 0 0 0 0 0 0 0 0 0 0 0 0 0 0 0 0 0 0 0 0 0 0 0 0 0 0 0 0 0 0 0 0 0 0 0 0 0 0 0 0
0 0 0 0 0 0 0 0 0 0 0 0 0 0 0 0 0 0 0 0 0 0 0 0 0 0 0 0 0 0 0 0 0 0 0 0 0 0 0 0 0 0 0
0 0 0 0 0 0 0 0 0 0 0 0 0 0 0 0 0 0 0 0 0 0 0 0 0 0 0 0 0 0 0 0 0 0 0 0 0 0 0 0 0 0 0
0 0 0 0 0 0 0 0 0 0 0 0 0 0 0 0 0 0 0 0 0 0 0 0 0 0 0 0 0 0 0 0 0 0 0 0 0 0 0 0 0 0 0
0 0 0 0 0 0 0 0 0 0 0 0 0 0 0 0 0 0 0 0 0 0 0 0 0 0 0 0 0 0 0 0 0 0 0 0 0 0 0 0 0 0 0
0 0 0 0 0 0 0 0 0 0 0 0 0 0 0 0 0 0 0 0 0 0 0 0 0 0 0 0 0 0 0 0 0 0 0 0 0 0 0 0 0 0 0
0 0 0 0 0 0 0 0 0 0 0 0 0 0 0 0 0 0 0 0 0 0 0 0 0 0 0 0 0 0 0 0 0 0 0 0 0 0 0 0 0 0 0
0 0 0 0 0 0 0 0 0 0 0 0 0 0 0 0 0 0 0 0 0 0 0 0 0 0 0 0 0 0 0 0 0 0 0 0 0 0 0 0 0 0 0
0 0 0 0 0 0 0 0 0 0 0 0 0 0 0 0 0 0 0 0 0 0 0 0 0 0 0 0 0 0 0 0 0 0 0 0 0 0 0 0 0 0 0
0 0 0 0 0 0 0 0 0 0 0 0 0 0 0 0 0 0 0 0 0 0 0 0 0 0 0 0 0 0 0 0 0 0 0 0 0 0 0 0 0 0 0
0 0 0 0 0 0 0 0 0 0 0 0 0 0 0 0 0 0 0 0 0 0 0 0 0 0 0 0 0 0 0 0 0 0 0 0 0 0 0 0 0 0 0
0 0 0 0 0 0 0 0 0 0 0 0 0 0 0 0 0 0 0 0 0 0 0 0 0 0 0 0 0 0 0 0 0 0 0 0 0 0 0 0 0 0 0
0 0 0 0 0 0 0 0 0 0 0 0 0 0 0 0 0 0 0 0 0 0 0 0 0 0 0 0 0 0 0 0 0 0 0 0 0 0 0 0 0 0 0
0 0 0 0 0 0 0 0 0 0 0 0 0 0 0 0 0 0 0 0 0 0 0 0 0 0 0 0 0 0 0 0 0 0 0 0 0 0 0 0 0 0 0
0 0 0 0 0 0 0 0 0 0 0 0 0 0 0 0 0 0 0 0 0 0 0 0 0 0 0 0 0 0 0 0 0 0 0 0 0 0 0 0 0 0 0
0 0 0 0 0 0 0 0 0 0 0 0 0 0 0 0 0 0 0 0 0 0 0 0 0 0 0 0 0 0 0 0 0 0 0 0 0 0 0 0 0 0 0
0 0 0 0 0 0 0 0 0 0 0 0 0 0 0 0 0 0 0 0 0 0 0 0 0 0 0 0 0 0 0 0 0 0 0 0 0 0 0 0 0 0 0
0 0 0 0 0 0 0 0 0 0 0 0 0 0 0 0 0 0 0 0 0 0 0 0 0 0 0 0 0 0 0 0 0 0 0 0 0 0 0 0 0 0 0
0 0 0 0 0 0 0 0 0 0 0 0 0 0 0 0 0 0 0 0 0 0 0 0 0 0 0 0 0 0 0 0 0 0 0 0 0 0 0 0 0 0 0
0 0 0 0 0 0 0 0 0 0 0 0 0 0 0 0 0 0 0 0 0 0 0 0 0 0 0 0 0 0 0 0 0 0 0 0 0 0 0 0 0 0 0
0 0 0 0 0 0 0 0 0 0 0 0 0 0 0 0 0 0 0 0 0 0 0 0 0 0 0 0 0 0 0 0 0 0 0 0 0 0 0 0 0 0 0
0 0 0 0 0 0 0 0 0 0 0 0 0 0 0 0 0 0 0 0 0 0 0 0 0 0 0 0 0 0 0 0 0 0 0 0 0 0 0 0 0 0 0
0 0 0 0 0 0 0 0 0 0 0 0 0 0 0 0 0 0 0 0 0 0 0 0 0 0 0 0 0 0 0 0 0 0 0 0 0 0 0 0 0 0 0
0 0 0 0 0 0 0 0 0 0 0 0 0 0 0 0 0 0 0 0 0 0 0 0 0 0 0 0 0 0 0 0 0 0 0 0 0 0 0 0 0 0 0
0 0 0 0 0 0 0 0 0 0 0 0 0 0 0 0 0 0 0 0 0 0 0 0 0 0 0 0 0 0 0 0 0 0 0 0 0 0 0 0 0 0 0
Wind_Speed
5 4 4 3 3 3 3 3 3 3 4 4 4 5 5 4 4 3 3 10 11 10 9 9 8 9 9 9 9 9 10 10 10 10 11 11 11 12 12 13 13 13 13
6 6 5 4 4 3 3 3 4 4 3 3 4 4 4 4 4 4 3 6 10 9 8 8 8 9 9 9 10 10 10 10 10 11 11 11 12 12 12 13 13 14 14
8 7 5 5 4 4 4 4 4 4 3 3 4 3 3 3 4 4 4 3 4 6 7 7 7 8 9 10 10 10 10 10 10 11 11 12 12 13 13 14 15 15 15
10 8 6 5 5 5 5 5 4 3 3 3 2 2 2 3 4 4 3 3 2 2 4 5 6 7 9 10 11 12 11 11 10 11 12 12 13 14 14 15 16 16 16
10 8 6 6 6 5 4 5 3 3 2 2 1 1 1 2 3 4 4 4 3 3 2 3 4 5 7 10 12 13 12 12 11 12 13 13 14 15 16 17 17 18 18
10 9 7 7 7 6 4 4 4 3 2 2 2 2 1 1 2 3 4 3 3 3 2 2 2 2 5 9 11 13 13 12 13 13 14 14 15 16 17 18 19 19 19
10 9 8 8 7 6 6 7 4 4 2 1 2 2 2 2 1 1 1 2 2 2 2 2 1 0 2 7 10 12 13 13 14 14 15 15 16 17 19 20 20 20 20
11 10 11 9 7 7 7 6 5 4 2 2 2 2 1 2 2 1 0 1 1 1 1 1 1 1 2 2 6 12 12 13 15 16 17 18 18 19 21 21 22 22 22
10 10 11 10 8 8 7 6 6 6 4 2 1 3 3 3 2 2 2 1 1 1 1 1 2 3 4 3 4 8 12 14 16 17 19 20 21 22 23 23 23 23 22
9 10 11 10 9 7 8 7 5 4 5 3 2 2 2 3 2 1 2 2 1 1 1 2 3 4 4 3 5 10 13 15 17 19 21 22 23 23 24 24 24 24 23
7 9 10 9 9 7 7 7 6 5 4 4 3 2 2 2 2 2 2 3 3 2 2 3 3 3 4 3 3 8 15 18 20 21 23 24 24 25 25 25 25 24 24
5 8 9 9 8 8 8 7 6 7 5 5 4 3 3 2 2 2 2 2 3 3 3 3 2 2 2 2 6 16 18 19 21 23 24 25 25 25 25 25 25 25 25
6 9 9 9 8 8 8 8 7 6 6 6 5 3 2 2 2 3 2 2 3 3 3 2 2 2 1 2 5 18 17 20 22 24 25 25 25 25 25 25 25 25 25
7 9 9 9 10 10 9 8 6 6 5 5 5 4 3 2 2 2 3 2 2 3 3 4 3 2 1 3 9 18 9 21 23 24 25 25 24 24 24 25 25 25 25
9 11 10 11 10 10 9 8 6 6 6 4 4 3 2 2 2 2 2 3 3 3 4 4 3 3 3 4 11 8 6 18 24 24 24 24 24 24 25 25 25 25 25
12 13 12 12 11 9 9 7 6 6 6 4 3 3 2 1 1 2 2 3 3 4 5 4 4 4 6 9 15 9 9 23 22 24 24 24 25 25 25 25 25 25 25
13 13 13 12 11 10 8 7 6 6 5 3 2 2 2 2 2 2 2 2 3 4 7 6 4 4 6 9 10 8 9 9 10 22 25 25 25 25 25 25 25 25 25
12 12 12 12 11 9 8 7 7 5 4 3 1 1 1 2 2 2 2 3 4 4 5 9 5 4 7 8 9 10 11 11 8 20 25 25 25 25 25 25 25 25 26
12 12 12 11 10 9 8 7 6 5 4 2 1 0 2 2 3 3 4 4 4 5 5 6 8 5 5 7 8 9 10 9 11 15 21 22 24 25 25 26 26 26 26
13 12 11 11 10 9 8 7 6 5 4 2 2 1 2 3 4 5 4 6 5 5 5 6 7 7 6 7 6 7 10 6 9 11 15 17 20 23 25 26 26 26 26
13 12 12 11 9 7 6 6 5 5 3 2 2 3 3 5 7 6 5 5 4 4 5 6 7 8 8 7 8 7 12 10 9 9 8 8 9 9 12 18 22 24 26
12 12 11 10 8 6 9 9 6 4 2 2 3 4 5 5 8 11 14 14 12 8 6 6 7 10 11 9 9 10 11 13 11 4 5 9 8 10 9 7 19 26 27
11 10 9 8 7 7 9 7 7 4 2 1 2 3 4 5 8 6 10 14 13 16 17 11 10 11 12 11 12 13 12 12 13 9 9 13 9 11 9 12 24 27 28
9 8 7 7 6 6 7 5 5 3 1 1 2 3 4 5 7 9 7 6 7 8 12 10 9 11 11 11 11 12 12 12 11 9 7 11 11 11 11 8 21 27 27
8 6 5 6 5 4 4 3 3 2 1 2 3 4 5 5 13 16 9 7 9 9 14 19 20 19 23 24 19 9 8 10 12 10 5 6 6 8 10 11 13 21 21
6 6 5 4 4 2 1 1 1 1 1 3 3 4 8 11 15 16 9 8 9 9 9 10 12 14 13 14 18 9 6 9 11 9 3 4 5 7 9 5 6 7 12
Wind_Direction
182 181 183 178 175 164 157 144 129 115 101 90 87 98 106 112 107 88 85 97 96 92 84 72 59 45 33 24 19 14 9 5 2 0 357 354 352 348 345 342 338 335 331
182 180 178 174 174 166 153 140 131 116 100 92 82 86 104 118 115 111 94 97 103 98 87 70 53 39 27 17 10 7 4 2 359 356 352 349 346 343 339 336 332 329 325
180 177 173 171 170 152 134 116 109 98 91 82 78 81 99 120 131 129 116 100 100 101 95 75 53 37 24 12 3 360 358 358 354 350 347 344 341 338 335 331 327 324 319
177 170 168 166 155 140 133 126 120 96 81 81 76 65 91 121 138 143 135 132 125 111 102 91 60 36 21 8 359 353 349 349 346 343 340 337 335 332 330 326 323 319 315
173 165 163 155 146 136 133 131 110 113 104 94 98 91 95 130 145 152 157 164 163 148 133 98 75 42 16 3 356 348 342 340 339 336 333 330 328 327 325 322 319 315 310
169 159 153 151 144 136 131 125 115 92 97 108 83 66 48 90 133 154 167 168 173 164 146 117 79 17 4 355 350 342 336 334 331 328 326 324 322 322 321 318 314 310 307
165 158 154 152 150 147 148 138 120 107 84 79 92 55 16 26 79 131 153 156 165 152 137 129 131 328 324 340 341 335 331 326 324 321 320 318 318 318 316 313 310 307 304
166 162 157 158 153 141 142 145 135 122 97 66 125 118 47 341 344 27 53 149 129 96 90 72 342 312 301 302 308 325 324 319 317 316 314 314 314 314 312 309 306 304 302
165 161 160 155 153 151 157 155 145 137 137 90 76 141 151 214 289 331 12 53 89 93 44 1 351 327 313 304 298 311 314 314 312 311 311 312 312 311 308 306 304 302 301
160 157 156 153 152 149 151 152 145 138 133 137 106 68 104 139 151 301 325 354 9 57 5 348 337 324 325 321 321 324 321 317 312 311 311 311 310 308 306 305 303 303 302
152 153 152 149 149 146 145 138 135 129 128 141 142 130 104 79 97 150 279 316 328 314 313 309 312 321 332 343 335 329 328 321 316 313 312 310 308 306 305 304 304 303 302
146 150 148 146 144 142 141 135 131 126 122 122 121 123 136 140 149 159 221 275 288 289 291 291 292 308 333 2 345 337 328 321 317 313 310 307 306 305 305 305 303 301 298
159 160 151 146 141 136 132 128 124 121 119 123 121 116 121 132 138 149 171 248 285 294 301 296 257 289 339 345 328 326 320 318 314 310 307 306 306 306 305 302 299 298 296
152 150 146 142 138 136 132 127 122 120 116 116 117 124 126 134 142 156 167 174 293 296 283 274 287 273 290 312 313 320 313 313 310 307 305 305 305 304 301 299 298 297 295
142 143 141 138 135 132 131 127 123 121 119 117 127 132 134 151 155 165 165 164 188 269 282 270 282 279 297 301 304 305 295 306 307 306 305 303 302 301 300 298 297 296 295
145 145 142 138 133 129 128 122 122 125 121 125 137 143 152 173 180 184 187 191 189 211 256 260 258 277 296 304 306 308 298 306 307 304 302 302 301 300 299 298 298 297 295
146 146 143 138 133 130 127 125 125 125 124 124 131 156 197 199 206 214 210 212 217 212 258 272 259 279 286 289 298 294 293 289 290 300 302 301 300 300 300 299 297 296 295
141 139 136 132 129 126 125 125 124 119 122 129 132 151 244 239 234 233 230 236 239 231 246 279 282 277 275 281 286 289 297 295 290 297 299 300 300 300 299 297 297 297 297
133 130 129 127 123 120 115 111 111 109 104 97 82 277 271 260 261 258 252 250 250 256 247 271 287 281 278 283 288 287 287 284 288 293 298 298 297 297 297 297 298 298 297
127 124 120 117 115 113 110 108 106 100 88 67 33 339 295 270 261 262 258 254 255 262 265 272 284 289 285 285 284 294 299 285 288 292 290 290 292 296 295 296 296 296 295
116 114 112 109 108 108 112 112 106 97 82 39 1 339 318 303 291 284 278 264 259 258 266 275 287 295 296 299 298 295 299 298 286 277 276 279 284 280 284 288 292 291 289
108 108 110 113 111 112 119 114 109 99 78 31 347 334 320 314 312 319 313 305 298 291 290 284 292 294 296 293 294 294 297 300 299 270 281 291 283 282 280 272 285 290 291
104 105 108 110 112 120 121 115 107 107 81 24 338 324 322 322 330 301 299 302 300 299 298 296 291 288 289 290 290 290 288 289 292 295 295 292 286 285 282 285 292 292 292
107 109 113 117 119 128 129 123 114 112 99 328 302 295 294 296 302 303 286 284 277 281 287 286 273 275 278 279 276 286 293 294 287 281 274 283 286 284 286 282 288 288 289
110 114 118 121 123 137 150 142 124 146 244 289 291 294 304 295 306 315 311 296 291 287 297 297 294 295 299 302 304 301 297 298 296 292 272 266 277 289 285 276 277 283 288
114 115 109 112 124 135 164 166 85 162 280 296 298 295 313 316 313 317 310 299 299 297 294 298 301 302 299 295 299 290 281 288 292 293 254 259 284 306 296 258 255 273 283